Weather History for Pardubice, Czech Republic

Change the Weather History Date:

Monday, January 21, 2013

  Actual Average Record
Temperature  
Mean Temperature 24 °F -  
Max Temperature 28 °F - - ()
Min Temperature 21 °F - - ()
Degree Days  
Heating Degree Days 40    
Moisture  
Dew Point 23 °F    
Average Humidity 90    
Maximum Humidity 100    
Minimum Humidity 86    
Precipitation  
Precipitation 0.00 in - - ()
Sea Level Pressure  
Sea Level Pressure 29.40 in    
Wind  
Wind Speed 2 mph ()    
Max Wind Speed 4 mph    
Max Gust Speed -    
Visibility 2.0 miles    
Events Fog , Snow    
T = Trace of Precipitation, MM = Missing Value Source: Averaged Metar Reports

Daily Weather History Graph

Daily Weather History Graph

Search for Another Location

Airport:

Trip Planner

Search our weather history database for the weather conditions in past years. The results will help you decide how hot, cold, wet, or windy it might be!

Date:

Astronomy

Jan. 21, 2013 Rise Set
Actual Time 7:44 AM CET 4:33 PM CET
Civil Twilight 7:08 AM CET 5:09 PM CET
Nautical Twilight 6:28 AM CET 5:49 PM CET
Astronomical Twilight 5:49 AM CET 6:27 PM CET
Moon 11:59 AM CET (1/21) 2:56 AM CET (1/21)
Length of Visible Light 10h 01m
Length of Day
8h 48m
Waxing Gibbous, 73% of the Moon is Illuminated
Jan 21
Waxing Gibbous
Jan 27
Full
Feb 3
Last Quarter
Feb 10
New
Feb 17
First Quarter

Hourly Weather History & Observations

Time (CET) Temp. Windchill Dew Point Humidity Pressure Visibility Wind Dir Wind Speed Gust Speed Precip Events Conditions
12:00 AM 26.6 °F 22.6 °F 23.0 °F 86% 29.44 in 4.3 mi NE 3.5 mph - N/A   Overcast
1:00 AM 26.6 °F - 23.0 °F 86% 28.65 in 4.3 mi Calm Calm - N/A   Overcast
2:00 AM 28.4 °F - 24.8 °F 86% 28.62 in 4.3 mi Variable 2.3 mph - N/A   Overcast
3:00 AM 26.6 °F 22.6 °F 23.0 °F 86% 29.42 in 4.3 mi NE 3.5 mph - N/A   Overcast
4:00 AM 26.6 °F - 23.0 °F 86% 29.42 in 4.3 mi Variable 2.3 mph - N/A   Overcast
5:00 AM 26.6 °F - 23.0 °F 86% 29.42 in 4.3 mi Variable 2.3 mph - N/A   Overcast
6:00 AM 26.6 °F - 23.0 °F 86% 29.42 in 3.1 mi Variable 2.3 mph - N/A   Overcast
7:00 AM 26.6 °F - 23.0 °F 86% 29.44 in 3.1 mi NE 2.3 mph - N/A   Overcast
7:29 AM 26.6 °F - 24.8 °F 93% 29.44 in 1.9 mi Variable 1.2 mph - N/A   Light Freezing Rain
8:00 AM 26.6 °F - 24.8 °F 93% 29.44 in 1.9 mi Variable 2.3 mph - N/A   Light Freezing Rain
8:18 AM 26.6 °F - 24.8 °F 93% 29.44 in 1.2 mi Variable 2.3 mph - N/A   Light Freezing Rain
9:00 AM 26.6 °F - 26.6 °F 100% 29.47 in 1.2 mi Calm Calm - N/A   Light Freezing Rain
10:00 AM 26.6 °F - 24.8 °F 93% 29.47 in 0.9 mi Variable 2.3 mph - N/A   Light Freezing Rain
11:00 AM 26.6 °F 22.6 °F 24.8 °F 93% 29.47 in 0.9 mi NE 3.5 mph - N/A   Light Freezing Drizzle
11:25 AM 26.6 °F - 24.8 °F 93% 29.44 in 0.7 mi Variable 2.3 mph - N/A Snow Light Snow
12:00 PM 26.6 °F - 24.8 °F 93% 29.44 in 0.9 mi Variable 2.3 mph - N/A Snow Light Snow
1:00 PM 26.6 °F - 24.8 °F 93% 29.44 in 0.9 mi Variable 2.3 mph - N/A Snow Light Snow
1:28 PM 26.6 °F 22.6 °F 23.0 °F 86% 29.44 in 1.2 mi North 3.5 mph - N/A Snow Light Snow
2:00 PM 24.8 °F 20.5 °F 23.0 °F 93% 29.44 in 1.2 mi North 3.5 mph - N/A Snow Light Snow
3:00 PM 24.8 °F - 23.0 °F 93% 29.44 in 1.2 mi Variable 1.2 mph - N/A   Overcast
4:00 PM 24.8 °F - 23.0 °F 93% 29.47 in 1.2 mi Variable 1.2 mph - N/A   Overcast
5:00 PM 24.8 °F - 23.0 °F 93% 29.47 in 0.8 mi Variable 1.2 mph - N/A Snow Light Snow
5:21 PM 24.8 °F - 21.2 °F 86% 29.47 in 0.4 mi Variable 1.2 mph - N/A Fog , Snow Light Snow
6:00 PM 23.0 °F - 21.2 °F 93% 29.47 in 0.9 mi Variable 2.3 mph - N/A Snow Light Snow
7:00 PM 23.0 °F - 19.4 °F 86% 29.50 in 1.2 mi Variable 2.3 mph - N/A Snow Light Snow
8:00 PM 23.0 °F - 19.4 °F 86% 29.50 in 1.2 mi Variable 2.3 mph - N/A Snow Light Snow
9:00 PM 23.0 °F - 19.4 °F 86% 29.53 in 1.6 mi Variable 1.2 mph - N/A Snow Light Snow
10:00 PM 21.2 °F - 19.4 °F 93% 29.56 in 2.2 mi Variable 2.3 mph - N/A Snow Light Snow
11:00 PM 21.2 °F - 19.4 °F 93% 29.56 in 1.9 mi Calm Calm - N/A Snow Light Snow